Location: Kosice
(0.0000°N, 21.2500°E)
Time: 05:52:31
(UTC+01:00)

Aureole 3 Rocket - Pass Details

Date: 24 January 2021
Orbit: 398 x 1740 km, 82.5° (Epoch: 04 March)

Event Time Altitude Azimuth Distance (km) Brightness Sun altitude
Rises 18:49:41 0° 358° (N) 2,758 6.2 -14.7°
Reaches altitude 10° 18:51:33 10° 358° (N) 1,993 5.5 -15.2°
Maximum altitude 18:55:57 84° 87° (E) 786 3.4 -16.2°
Drops below altitude 10° 19:02:14 10° 175° (S) 2,815 6.6 -17.7°
Sets 19:05:17 0° 175° (S) 4,000 7.4 -18.4°
